Change the Weather History Date:

Wednesday, May 21, 2014

  Actual Average Record
Temperature  
Mean Temperature 60 °F -  
Max Temperature 73 °F - 82 °F (2001)
Min Temperature 46 °F - 39 °F (2007)
Degree Days  
Heating Degree Days 5    
Month to date heating degree days 152  
Since 1 July heating degree days 4721  
Cooling Degree Days 0    
Month to date cooling degree days 9  
Year to date cooling degree days 9  
Growing Degree Days 10 (Base 50)    
Moisture  
Dew Point 48 °F    
Average Humidity 70    
Maximum Humidity 93    
Minimum Humidity 46    
Precipitation  
Precipitation 0.00 in - 0.47 in (2012)
Month to date precipitation 1.63  
Year to date precipitation 22.78  
Sea Level Pressure  
Sea Level Pressure 30.14 in    
Wind  
Wind Speed 6 mph (North)    
Max Wind Speed 18 mph    
Max Gust Speed 22 mph    
Visibility 10 miles    
Events      
T = Trace of Precipitation, MM = Missing Value Source: NWS Daily Summary

Daily Weather History Graph

Daily Weather History Graph

Search for Another Location

Airport or City:

Trip Planner

Search our weather history database for the weather conditions in past years. The results will help you decide how hot, cold, wet, or windy it might be!

Date:

Astronomy

May. 21, 2014 Rise Set
Actual Time 5:33 AM PDT 8:43 PM PDT
Civil Twilight 4:57 AM PDT 9:19 PM PDT
Nautical Twilight 4:11 AM PDT 10:05 PM PDT
Astronomical Twilight 3:15 AM PDT 11:02 PM PDT
Moon 1:43 AM PDT (5/21) 1:08 PM PDT (5/21)
Length of Visible Light 16h 21m
Length of Day
15h 09m
Waning Gibbous, 47% of the Moon is Illuminated
May 21
Waning Gibbous
May 28
New
Jun 5
First Quarter
Jun 12
Full
Jun 19
Last Quarter

Hourly Weather History & Observations

Time (PDT) Temp. Dew Point Humidity Pressure Visibility Wind Dir Wind Speed Gust Speed Precip Events Conditions
12:53 AM 53.1 °F 45.0 °F 74% 30.15 in 10.0 mi North 6.9 mph - N/A   Clear
1:53 AM 52.0 °F 45.0 °F 77% 30.16 in 10.0 mi NNW 4.6 mph - N/A   Clear
2:53 AM 51.1 °F 44.1 °F 77% 30.16 in 10.0 mi Calm Calm - N/A   Clear
3:53 AM 48.9 °F 44.1 °F 83% 30.16 in 10.0 mi NNW 3.5 mph - N/A   Clear
4:53 AM 46.0 °F 43.0 °F 89% 30.16 in 10.0 mi Calm Calm - N/A   Clear
5:23 AM 46.0 °F 44.1 °F 93% 30.16 in 10.0 mi Calm Calm - N/A   Mostly Cloudy
5:53 AM 46.9 °F 45.0 °F 93% 30.17 in 10.0 mi WNW 3.5 mph - N/A   Overcast
6:53 AM 51.1 °F 48.0 °F 89% 30.18 in 10.0 mi Calm Calm - N/A   Overcast
8:53 AM 55.9 °F 45.0 °F 67% 30.18 in 10.0 mi North 8.1 mph - N/A   Mostly Cloudy
9:53 AM 59.0 °F 46.0 °F 62% 30.18 in 10.0 mi North 9.2 mph - N/A   Overcast
10:37 AM 61.0 °F 46.9 °F 60% 30.17 in 10.0 mi North 8.1 mph - N/A   Mostly Cloudy
11:53 AM 62.1 °F 48.9 °F 62% 30.16 in 10.0 mi ENE 9.2 mph - N/A   Clear
12:53 PM 63.0 °F 48.9 °F 60% 30.15 in 10.0 mi Variable 4.6 mph - N/A   Clear
1:53 PM 66.0 °F 51.1 °F 59% 30.13 in 10.0 mi Variable 4.6 mph - N/A   Clear
2:53 PM 69.1 °F 52.0 °F 54% 30.12 in 10.0 mi Variable 3.5 mph - N/A   Clear
3:53 PM 73.0 °F 52.0 °F 48% 30.09 in 10.0 mi NNE 8.1 mph - N/A   Clear
4:53 PM 72.0 °F 50.0 °F 46% 30.09 in 10.0 mi North 13.8 mph - N/A   Clear
5:53 PM 72.0 °F 51.1 °F 48% 30.09 in 10.0 mi NNW 10.4 mph - N/A   Clear
6:53 PM 71.1 °F 50.0 °F 47% 30.08 in 10.0 mi NNW 5.8 mph - N/A   Clear
7:53 PM 68.0 °F 51.1 °F 55% 30.08 in 10.0 mi NNW 4.6 mph - N/A   Clear
8:53 PM 64.9 °F 52.0 °F 63% 30.09 in 10.0 mi North 4.6 mph - N/A   Clear
9:53 PM 62.1 °F 51.1 °F 67% 30.11 in 10.0 mi North 6.9 mph - N/A   Clear
10:53 PM 60.1 °F 50.0 °F 69% 30.12 in 10.0 mi NNW 9.2 mph - N/A   Clear
11:53 PM 59.0 °F 48.9 °F 69% 30.11 in 10.0 mi NNW 9.2 mph - N/A   Clear